Terminal Aerodrome Forecast
Issued by NWS Paducah, KY

Home | Current Version | Previous Version | Text Only | Print | Product List | Glossary On
Versions: 1 2 3 4 5 6 7 8 9 10 11 12 13 14 15 16 17 18 19 20 21 22 23
000
FTUS43 KPAH 201720
TAFEVV
TAF
KEVV 201720Z 2018/2118 21009KT P6SM SCT040
     FM210100 00000KT P6SM SKC
     FM211500 19008KT P6SM SCT035=

USA.gov is the U.S. government's official web portal to all federal, state and local government web resources and services.